M/T Vemaoil Xi — 9HWD7 — position and weather

sailwx.info

Track history (hours):
 
Tides and Currents Weather Stations Pressure Air Temp Water Temp Dewpoint Dewpoint Depression Visibility Wind Speed Wind Dir Waves Ship Positions

M/T Vemaoil Xi

Last reported at 2014-Sep-26 17:33 UTC. Time now 2014-Sep-30 21:53 UTC.
Position N 35°50' E 014°36'.

Length 105 m; draft 7 m.

Type: Tanker. MMSI: 215631000.

Date/timePositionNaut miles runAvg speedWind from/ knotsBaromVisibWave heightAir tempDewpointWater temp
2014-Sep-26 17:33N 35°50' E 014°36'  
2014-Sep-23 14:09N 35°54' E 014°48'0 0.0
2014-Sep-23 13:33N 35°54' E 014°48'0 0.0
2014-Sep-23 12:24N 35°54' E 014°48'0 0.0
2014-Sep-23 11:03N 35°54' E 014°48'0 0.0
2014-Sep-23 10:30N 35°54' E 014°48'2 1.6
2014-Sep-23 09:32N 35°54' E 014°47'7 7.2
2014-Sep-23 08:32N 35°50' E 014°39'5 4.9
2014-Sep-23 07:31N 35°49' E 014°33'0 0.0
2014-Sep-23 06:28N 35°49' E 014°33'0 0.0
2014-Sep-23 05:31N 35°49' E 014°33'0 0.0
2014-Sep-23 04:31N 35°49' E 014°33'0 0.0
2014-Sep-23 03:31N 35°49' E 014°33'0 0.0
2014-Sep-23 02:25N 35°49' E 014°33'0 0.0
2014-Sep-23 01:31N 35°49' E 014°33'0 0.0
2014-Sep-22 15:19N 35°49' E 014°33'0 0.0
2014-Sep-22 14:31N 35°49' E 014°33'0 0.0
2014-Sep-22 13:28N 35°49' E 014°33'0 0.0
2014-Sep-22 12:25N 35°49' E 014°33'1 0.8
2014-Sep-22 11:29N 35°49' E 014°34'1 1.1
2014-Sep-22 10:17N 35°49' E 014°35'0 0.0
2014-Sep-22 09:17N 35°49' E 014°35'0 0.0
2014-Sep-22 08:32N 35°49' E 014°35'0 0.1
2014-Sep-22 07:32N 35°49' E 014°35'0 0.0
2014-Sep-22 06:32N 35°49' E 014°35'0 0.0
2014-Sep-22 05:32N 35°49' E 014°35'0 0.0
2014-Sep-22 04:32N 35°49' E 014°35'0 0.0
2014-Sep-22 03:32N 35°49' E 014°35'0 0.0
2014-Sep-22 02:32N 35°49' E 014°35'0 0.0
2014-Sep-22 01:26N 35°49' E 014°35'0 0.0
2014-Sep-22 00:26N 35°49' E 014°35'0 0.0
2014-Sep-21 23:32N 35°49' E 014°35'0 0.1
2014-Sep-21 22:32N 35°49' E 014°35'0 0.0
2014-Sep-21 21:32N 35°49' E 014°35'0 0.0
2014-Sep-21 20:32N 35°49' E 014°35'0 0.0
2014-Sep-21 19:05N 35°49' E 014°35'1 1.3
2014-Sep-21 18:33N 35°49' E 014°35'1 1.0
2014-Sep-21 17:33N 35°49' E 014°34'1 0.9
2014-Sep-21 16:32N 35°49' E 014°35'0 0.0
2014-Sep-21 15:16N 35°49' E 014°35'0 0.0
2014-Sep-21 14:31N 35°49' E 014°35'0 0.0
2014-Sep-21 13:31N 35°49' E 014°35'0 0.0
2014-Sep-21 12:31N 35°49' E 014°35'0 0.0
2014-Sep-21 11:31N 35°49' E 014°35'0 0.1
2014-Sep-21 10:31N 35°49' E 014°35'0 0.0
2014-Sep-21 09:25N 35°49' E 014°35'0 0.0
2014-Sep-21 08:31N 35°49' E 014°35'0 0.0
2014-Sep-21 07:31N 35°49' E 014°35'0 0.0
2014-Sep-21 06:28N 35°49' E 014°35'0 0.0
2014-Sep-21 05:25N 35°49' E 014°35'0 0.0
2014-Sep-21 04:31N 35°49' E 014°35'0 0.0
2014-Sep-21 03:31N 35°49' E 014°35'0 0.0
2014-Sep-21 02:22N 35°49' E 014°35'0 0.1
2014-Sep-21 01:26N 35°49' E 014°35'0 0.0
2014-Sep-21 00:28N 35°49' E 014°35'0 0.1
2014-Sep-20 23:31N 35°49' E 014°35'5 5.2
2014-Sep-20 22:31N 35°51' E 014°42'4 3.3
2014-Sep-20 21:21N 35°53' E 014°45'0 0.0
2014-Sep-20 20:27N 35°53' E 014°45'0 0.0
2014-Sep-20 19:27N 35°53' E 014°45'0 0.0
2014-Sep-20 18:30N 35°53' E 014°45'0 0.0
2014-Sep-20 15:09N 35°53' E 014°45'0 0.0
2014-Sep-20 14:33N 35°53' E 014°45'0 0.0
2014-Sep-20 13:33N 35°53' E 014°45'2 1.9
2014-Sep-20 12:32N 35°55' E 014°47'0 0.0
2014-Sep-20 11:32N 35°55' E 014°47'0 0.0
2014-Sep-20 10:32N 35°55' E 014°46'0 0.0
2014-Sep-20 09:32N 35°55' E 014°46'0 0.0
2014-Sep-20 08:32N 35°55' E 014°46'0 0.0
2014-Sep-20 07:29N 35°55' E 014°46'0 0.1
2014-Sep-20 05:29N 35°55' E 014°46'2 2.0
2014-Sep-20 04:25N 35°53' E 014°47'0 0.0
2014-Sep-20 00:13N 35°53' E 014°47'0 0.0
2014-Sep-19 23:31N 35°53' E 014°47'0 0.0
2014-Sep-19 22:31N 35°53' E 014°47'0 0.0
2014-Sep-19 21:31N 35°53' E 014°47'0 0.0
2014-Sep-19 20:31N 35°53' E 014°47'1 0.1
2014-Sep-19 13:10N 35°53' E 014°48'0 0.0
2014-Sep-19 11:22N 35°53' E 014°48'0 0.0
2014-Sep-19 10:28N 35°53' E 014°48'0 0.0
2014-Sep-19 09:30N 35°53' E 014°48'0 0.0
2014-Sep-19 08:30N 35°53' E 014°48'0 0.0
2014-Sep-19 07:24N 35°53' E 014°48'2 2.2
2014-Sep-19 06:26N 35°52' E 014°46'6 6.5
2014-Sep-19 05:33N 35°50' E 014°39'3 0.5
2014-Sep-18 22:25N 35°49' E 014°35'0 0.0
2014-Sep-18 20:16N 35°49' E 014°35'0 0.0
2014-Sep-18 14:25N 35°49' E 014°35'0 0.0
2014-Sep-16 20:33N 35°49' E 014°35'0 0.0
2014-Sep-16 19:21N 35°49' E 014°35'  
Track history (hours):
 
Tides and Currents Weather Stations Pressure Air Temp Water Temp Dewpoint Dewpoint Depression Visibility Wind Speed Wind Dir Waves Ship Positions

M/T Vemaoil Xi

Last reported at 2014-Sep-26 17:33 UTC. Time now 2014-Sep-30 21:53 UTC.
Position N 35°50' E 014°36'.

Length 105 m; draft 7 m.

Type: Tanker. MMSI: 215631000.

Date/timePositionNaut miles runAvg speedWind from/ knotsBaromVisibWave heightAir tempDewpointWater temp
2014-Sep-26 17:33N 35°50' E 014°36'  
2014-Sep-23 14:09N 35°54' E 014°48'0 0.0
2014-Sep-23 13:33N 35°54' E 014°48'0 0.0
2014-Sep-23 12:24N 35°54' E 014°48'0 0.0
2014-Sep-23 11:03N 35°54' E 014°48'0 0.0
2014-Sep-23 10:30N 35°54' E 014°48'2 1.6
2014-Sep-23 09:32N 35°54' E 014°47'7 7.2
2014-Sep-23 08:32N 35°50' E 014°39'5 4.9
2014-Sep-23 07:31N 35°49' E 014°33'0 0.0
2014-Sep-23 06:28N 35°49' E 014°33'0 0.0
2014-Sep-23 05:31N 35°49' E 014°33'0 0.0
2014-Sep-23 04:31N 35°49' E 014°33'0 0.0
2014-Sep-23 03:31N 35°49' E 014°33'0 0.0
2014-Sep-23 02:25N 35°49' E 014°33'0 0.0
2014-Sep-23 01:31N 35°49' E 014°33'0 0.0
2014-Sep-22 15:19N 35°49' E 014°33'0 0.0
2014-Sep-22 14:31N 35°49' E 014°33'0 0.0
2014-Sep-22 13:28N 35°49' E 014°33'0 0.0
2014-Sep-22 12:25N 35°49' E 014°33'1 0.8
2014-Sep-22 11:29N 35°49' E 014°34'1 1.1
2014-Sep-22 10:17N 35°49' E 014°35'0 0.0
2014-Sep-22 09:17N 35°49' E 014°35'0 0.0
2014-Sep-22 08:32N 35°49' E 014°35'0 0.1
2014-Sep-22 07:32N 35°49' E 014°35'0 0.0
2014-Sep-22 06:32N 35°49' E 014°35'0 0.0
2014-Sep-22 05:32N 35°49' E 014°35'0 0.0
2014-Sep-22 04:32N 35°49' E 014°35'0 0.0
2014-Sep-22 03:32N 35°49' E 014°35'0 0.0
2014-Sep-22 02:32N 35°49' E 014°35'0 0.0
2014-Sep-22 01:26N 35°49' E 014°35'0 0.0
2014-Sep-22 00:26N 35°49' E 014°35'0 0.0
2014-Sep-21 23:32N 35°49' E 014°35'0 0.1
2014-Sep-21 22:32N 35°49' E 014°35'0 0.0
2014-Sep-21 21:32N 35°49' E 014°35'0 0.0
2014-Sep-21 20:32N 35°49' E 014°35'0 0.0
2014-Sep-21 19:05N 35°49' E 014°35'1 1.3
2014-Sep-21 18:33N 35°49' E 014°35'1 1.0
2014-Sep-21 17:33N 35°49' E 014°34'1 0.9
2014-Sep-21 16:32N 35°49' E 014°35'0 0.0
2014-Sep-21 15:16N 35°49' E 014°35'0 0.0
2014-Sep-21 14:31N 35°49' E 014°35'0 0.0
2014-Sep-21 13:31N 35°49' E 014°35'0 0.0
2014-Sep-21 12:31N 35°49' E 014°35'0 0.0
2014-Sep-21 11:31N 35°49' E 014°35'0 0.1
2014-Sep-21 10:31N 35°49' E 014°35'0 0.0
2014-Sep-21 09:25N 35°49' E 014°35'0 0.0
2014-Sep-21 08:31N 35°49' E 014°35'0 0.0
2014-Sep-21 07:31N 35°49' E 014°35'0 0.0
2014-Sep-21 06:28N 35°49' E 014°35'0 0.0
2014-Sep-21 05:25N 35°49' E 014°35'0 0.0
2014-Sep-21 04:31N 35°49' E 014°35'0 0.0
2014-Sep-21 03:31N 35°49' E 014°35'0 0.0
2014-Sep-21 02:22N 35°49' E 014°35'0 0.1
2014-Sep-21 01:26N 35°49' E 014°35'0 0.0
2014-Sep-21 00:28N 35°49' E 014°35'0 0.1
2014-Sep-20 23:31N 35°49' E 014°35'5 5.2
2014-Sep-20 22:31N 35°51' E 014°42'4 3.3
2014-Sep-20 21:21N 35°53' E 014°45'0 0.0
2014-Sep-20 20:27N 35°53' E 014°45'0 0.0
2014-Sep-20 19:27N 35°53' E 014°45'0 0.0
2014-Sep-20 18:30N 35°53' E 014°45'0 0.0
2014-Sep-20 15:09N 35°53' E 014°45'0 0.0
2014-Sep-20 14:33N 35°53' E 014°45'0 0.0
2014-Sep-20 13:33N 35°53' E 014°45'2 1.9
2014-Sep-20 12:32N 35°55' E 014°47'0 0.0
2014-Sep-20 11:32N 35°55' E 014°47'0 0.0
2014-Sep-20 10:32N 35°55' E 014°46'0 0.0
2014-Sep-20 09:32N 35°55' E 014°46'0 0.0
2014-Sep-20 08:32N 35°55' E 014°46'0 0.0
2014-Sep-20 07:29N 35°55' E 014°46'0 0.1
2014-Sep-20 05:29N 35°55' E 014°46'2 2.0
2014-Sep-20 04:25N 35°53' E 014°47'0 0.0
2014-Sep-20 00:13N 35°53' E 014°47'0 0.0
2014-Sep-19 23:31N 35°53' E 014°47'0 0.0
2014-Sep-19 22:31N 35°53' E 014°47'0 0.0
2014-Sep-19 21:31N 35°53' E 014°47'0 0.0
2014-Sep-19 20:31N 35°53' E 014°47'1 0.1
2014-Sep-19 13:10N 35°53' E 014°48'0 0.0
2014-Sep-19 11:22N 35°53' E 014°48'0 0.0
2014-Sep-19 10:28N 35°53' E 014°48'0 0.0
2014-Sep-19 09:30N 35°53' E 014°48'0 0.0
2014-Sep-19 08:30N 35°53' E 014°48'0 0.0
2014-Sep-19 07:24N 35°53' E 014°48'2 2.2
2014-Sep-19 06:26N 35°52' E 014°46'6 6.5
2014-Sep-19 05:33N 35°50' E 014°39'3 0.5
2014-Sep-18 22:25N 35°49' E 014°35'0 0.0
2014-Sep-18 20:16N 35°49' E 014°35'0 0.0
2014-Sep-18 14:25N 35°49' E 014°35'0 0.0
2014-Sep-16 20:33N 35°49' E 014°35'0 0.0
2014-Sep-16 19:21N 35°49' E 014°35'  

Dump ship's entire track history